Content
SEND FEEDBACK

Daily
Averages
Monthly
Summary
United States of America

CASA BLANCA, NEW MEXICO


Home > North America > United States > New Mexico
Elevation: 7630 feet     Latitude: 35 18N     Longitude: 107 18W

WEATHER
 
SELECT A DAY
Number of Records: 340,171;   Date Range: 1/13/99 - 8/30/14
 
SHARE

PRINT THIS DATA

[ ← Previous Day ]
WEATHER ALMANAC - JANUARY 31, 2013
[ Next Day → ]
[ °C ]   °F
Weather ElementAverageHighLow
Temperature27.6 °F48.2 °F (2:50 pm)14 °F (2:35 am)
Dewpoint13.7 °F19.4 °F (10:50 am)6.8 °F (2:35 am)
Humidity59.2 %86 % (6:50 am)25 % (2:50 pm)
Barometer30.24 in30.31 in (8:50 am)30.20 in (12:35 am)
Wind Speed4 mph12.7 mph (7:50 pm)
Wind Gust17.3 mph (11:50 am)
Weather ElementAverage
Visibility10 mi
Wind DirectionSSE (150.8 °)

Weather ElementTotal
Precipitation---
Heating Degree Days33.9 (Base 65)
Averaged from 37 records on January 31, 2013
WEATHER CONDITIONS BREAKOUT
WIND DIRECTION BREAKOUT
WEATHER BY HOUR - JANUARY 31, 2013
[ °C ]   °F
Local TimeTemperatureDewpointHumidityBarometerVisibilityWind DirectionWind SpeedGust SpeedPrecipitationEventsConditions
12:35 AM19.4 °F10.4 °F68 %30.20 in10.0 miCalmClear
12:55 AM21.2 °F12.2 °F68 %30.20 in10.0 miCalmClear
1:15 AM23.0 °F10.4 °F59 %30.20 in10.0 miCalmClear
1:35 AM21.2 °F10.4 °F63 %30.20 in10.0 miENE (60°)3.5 mphClear
1:55 AM19.4 °F10.4 °F68 %30.20 in10.0 miCalmClear
2:15 AM15.8 °F8.6 °F73 %30.20 in10.0 miCalmClear
2:35 AM14.0 °F6.8 °F73 %30.20 in10.0 miCalmClear
2:55 AM17.6 °F10.4 °F73 %30.21 in10.0 miCalmClear
3:15 AM15.8 °F8.6 °F73 %30.21 in10.0 miCalmClear
3:35 AM14.0 °F8.6 °F79 %30.21 in10.0 miSW (230°)4.6 mphClear
3:55 AM15.8 °F10.4 °F79 %30.22 in10.0 miWSW (250°)5.8 mphClear
4:15 AM15.8 °F10.4 °F79 %30.22 in10.0 miCalmClear
4:35 AM15.8 °F10.4 °F79 %30.22 in10.0 miCalmClear
5:50 AM15.8 °F10.4 °F79 %30.23 in10.0 miCalmClear
6:50 AM14.0 °F10.4 °F86 %30.25 in10.0 miCalmClear
7:50 AM17.6 °F14.0 °F86 %30.27 in10.0 miCalmPartly Cloudy
8:50 AM28.4 °F17.6 °F64 %30.31 in10.0 miCalmPartly Cloudy
9:50 AM32.0 °F17.6 °F55 %30.31 in10.0 miCalmPartly Cloudy
10:50 AM37.4 °F19.4 °F48 %30.29 in10.0 miNorth (350°)8.1 mphPartly Cloudy
11:50 AM41.0 °F19.4 °F42 %30.26 in10.0 miNNW (330°)8.1 mph17.3 mphScattered Clouds
12:50 PM44.6 °F15.8 °F31 %30.22 in10.0 miNNW (330°)11.5 mphScattered Clouds
1:50 PM46.4 °F15.8 °F29 %30.23 in10.0 miNorth (350°)11.5 mphScattered Clouds
2:50 PM48.2 °F14.0 °F25 %30.24 in10.0 miNW (310°)10.4 mph16.1 mphScattered Clouds
3:50 PM46.4 °F14.0 °F27 %30.25 in10.0 miNW (310°)6.9 mphScattered Clouds
4:50 PM44.6 °F15.8 °F31 %30.25 in10.0 miWNW (290°)5.8 mphMostly Cloudy
5:50 PM39.2 °F14.0 °F36 %30.25 in10.0 miNorth (350°)9.2 mphScattered Clouds
6:50 PM35.6 °F15.8 °F44 %30.26 in10.0 miNNW (330°)9.2 mphScattered Clouds
7:50 PM33.8 °F17.6 °F52 %30.25 in10.0 miNNW (340°)12.7 mphClear
9:15 PM32.0 °F17.6 °F55 %30.25 in10.0 miNorth (360°)6.9 mphClear
9:35 PM32.0 °F17.6 °F55 %30.26 in10.0 miNNW (340°)6.9 mphClear
9:55 PM30.2 °F17.6 °F60 %30.27 in10.0 miNorth (360°)3.5 mphClear
10:15 PM28.4 °F15.8 °F59 %30.27 in10.0 miCalmClear
10:35 PM28.4 °F15.8 °F59 %30.28 in10.0 miNNE (20°)4.6 mphClear
10:55 PM28.4 °F15.8 °F59 %30.28 in10.0 miCalmClear
11:15 PM30.2 °F15.8 °F55 %30.28 in10.0 miCalmClear
11:35 PM28.4 °F15.8 °F59 %30.28 in10.0 miNNW (340°)9.2 mphClear
11:55 PM28.4 °F15.8 °F59 %30.27 in10.0 miNNW (330°)10.4 mphClear
Hourly data recorded from KAEG, located miles away from Casa Blanca, New Mexico







STORIES FROM OUR PARTNERS